Location: Cointrin
(46.2167°N, 6.1167°E)
Time: 16:24:36
(UTC+00:00)

ADEOS - Pass Details

Date: 08 February 2023
Orbit: 792 x 793 km, 98.9° (Epoch: 22 March)

Event Time Altitude Azimuth Distance (km) Brightness Sun altitude
Rises 17:37:12 0° 177° (S) 3,279 6.9 -8.6°
Reaches altitude 10° 17:39:34 10° 182° (S) 2,354 6.2 -9.0°
Maximum altitude 17:44:39 54° 259° (W) 959 4.5 -9.8°
Drops below altitude 10° 17:49:46 10° 337° (NNW) 2,370 6.2 -10.7°
Sets 17:52:10 0° 342° (NNW) 3,304 6.9 -11.1°
